Temp
73 71 69 68 61 57 53 57 61 61 62 64 67 67 67 64 65 62 74 77 78 78 80 80 78 78 78 77 77 77 77 77 77 77 77 77 77 77 77 78 78 78 78 78 78 78 77 77 77
69 70 67 61 55 50 54 58 58 64 63 65 66 66 65 61 68 69 73 76 78 78 80 80 77 77 77 77 77 77 77 77 77 77 77 77 77 78 78 78 77 77 77 78 78 77 76 76 76
69 69 64 58 51 51 54 58 62 61 64 65 63 66 65 63 68 71 75 77 78 78 79 79 76 77 77 77 77 76 76 77 76 76 76 76 77 77 77 77 76 76 76 76 77 76 76 76 75
66 65 61 55 49 56 59 62 63 61 63 66 64 61 65 69 70 72 76 77 77 77 78 77 76 77 76 76 76 76 77 77 77 76 77 77 77 77 77 76 76 75 75 75 76 76 76 75 75
62 60 52 48 51 56 59 62 62 61 63 63 64 59 61 68 70 73 75 76 76 76 78 79 76 76 76 76 76 76 76 76 76 76 76 76 76 76 76 75 75 75 75 76 76 76 76 75 75
55 56 48 45 50 57 61 64 65 63 62 62 62 61 63 69 69 70 73 73 74 74 74 75 72 73 74 74 74 74 75 75 75 75 74 74 74 74 74 74 74 74 75 75 75 76 76 76 76
53 50 46 47 50 55 61 62 63 62 62 63 65 60 62 66 68 69 70 71 70 71 71 71 72 71 70 71 71 72 72 72 72 71 71 70 69 70 72 71 72 73 74 74 74 74 74 74 75
54 51 46 48 50 54 60 62 63 64 61 65 66 60 60 67 67 67 67 67 68 67 68 69 70 70 70 70 68 68 68 68 68 67 67 66 66 66 68 68 69 71 71 72 72 73 73 73 72
56 47 44 47 51 56 60 60 63 64 62 62 63 64 65 67 66 64 63 65 66 66 66 66 67 67 69 69 66 65 65 65 64 65 63 66 68 68 69 65 66 67 69 69 70 70 70 68 69
52 47 48 53 55 56 60 61 61 62 60 60 60 62 65 65 65 63 63 63 64 65 64 65 65 65 65 68 65 65 66 65 66 66 66 67 67 66 66 63 63 64 65 65 66 66 66 67 71
52 48 51 54 56 58 59 59 62 60 59 62 61 59 62 63 64 63 63 64 64 65 64 64 63 62 63 64 64 65 64 64 65 64 65 65 65 65 66 66 66 66 63 66 66 67 68 66 67
49 52 54 54 55 56 58 60 59 60 61 60 62 62 62 62 63 63 63 64 64 64 63 63 62 62 62 63 62 63 64 63 64 63 63 64 64 64 64 64 64 64 65 65 65 64 65 65 66
50 51 53 53 54 55 58 57 59 59 59 59 61 62 61 61 62 63 64 64 64 63 62 62 61 62 62 61 61 62 62 62 62 62 62 62 62 62 63 63 63 63 64 64 64 65 65 65 65
51 51 51 53 54 54 56 57 59 59 58 58 59 59 60 61 62 62 62 63 62 63 62 61 61 61 62 61 61 61 62 61 61 61 60 61 61 61 61 61 62 62 63 64 64 64 64 65 65
51 49 51 50 52 53 54 55 55 58 58 56 57 58 59 60 61 62 63 63 63 62 62 61 61 61 61 60 60 61 60 60 60 59 60 60 60 60 59 60 60 61 62 62 63 64 64 64 65
48 48 44 51 51 53 55 49 56 57 57 55 56 57 58 60 61 61 62 62 63 62 61 61 63 60 60 60 59 60 59 59 59 58 59 59 60 60 59 59 59 60 61 61 61 62 62 63 64
43 40 43 47 50 51 53 50 54 56 55 56 56 57 57 58 60 61 62 62 62 62 61 60 60 60 60 59 58 57 57 58 58 58 58 58 59 59 59 59 59 60 60 60 59 60 60 61 62
40 40 42 43 47 50 48 49 52 54 54 55 55 56 55 55 59 60 61 61 61 60 60 60 59 59 59 58 57 57 57 57 58 58 59 58 58 58 58 58 59 59 58 59 59 58 61 60 60
43 42 41 43 47 47 43 45 50 52 52 53 53 53 54 55 58 58 59 59 58 58 58 59 58 59 58 58 57 56 56 56 57 57 57 58 58 58 57 58 58 58 58 58 57 56 58 59 61
43 42 40 43 45 46 42 46 49 50 51 52 53 53 52 53 54 55 56 58 56 57 56 56 58 58 57 56 55 55 55 55 55 55 56 57 57 57 58 57 57 58 58 57 56 55 55 58 58
38 39 39 42 42 41 40 45 46 50 51 52 50 50 52 52 53 53 54 56 54 54 55 56 57 57 57 56 55 54 54 54 55 55 56 56 56 56 56 56 57 57 58 57 56 55 55 54 58
39 41 42 42 39 37 39 36 43 45 48 50 49 49 51 51 52 53 53 55 53 54 54 55 56 56 56 55 54 54 53 53 54 54 54 55 55 56 55 55 56 56 56 56 57 57 55 54 53
39 42 40 39 37 34 37 33 42 42 44 48 51 50 50 52 52 53 53 54 54 53 54 54 55 55 56 55 54 54 52 53 53 53 53 54 55 55 55 55 55 55 55 56 56 56 55 55 54
42 41 39 36 35 27 32 32 37 39 44 47 49 49 49 51 52 53 54 54 54 54 54 54 54 55 55 54 54 53 52 53 52 53 53 54 54 55 55 54 54 54 54 55 56 56 55 55 55
41 37 26 28 24 30 33 30 37 44 46 47 48 48 50 51 52 52 52 53 53 54 54 54 54 54 55 55 54 54 53 53 52 53 53 53 53 54 54 53 53 54 54 54 55 56 55 55 54
37 37 27 26 25 27 32 29 38 44 46 47 48 49 50 51 51 52 52 52 53 53 54 54 54 54 54 54 54 54 53 53 53 53 53 52 52 53 54 53 53 53 53 53 55 55 55 54 53
38 32 36 24 23 25 29 35 42 43 44 47 47 48 49 50 51 52 52 52 52 53 53 53 53 53 53 53 53 53 53 52 52 52 52 52 52 52 53 53 53 53 53 53 53 53 53 54 54
38 39 32 29 26 24 27 29 31 33 42 46 47 48 49 50 50 51 51 51 51 51 51 52 52 52 53 53 53 53 52 52 52 52 51 51 52 52 52 52 52 52 52 52 52 52 53 52 53
36 33 32 32 30 27 25 31 35 38 43 44 46 48 49 49 48 49 49 49 49 50 50 51 51 51 52 52 52 53 53 52 52 52 52 51 51 51 51 51 51 51 51 51 51 51 51 50 51
35 34 34 30 28 26 27 28 42 41 44 45 46 47 48 48 48 48 49 49 49 49 50 50 50 50 51 51 51 51 51 51 52 52 52 52 51 51 50 50 50 50 50 51 50 49 50 49 49
MSLP
1015.53 1015.57 1015.75 1015.93 1016.78 1016.73 1016.32 1015.94 1015.47 1015.40 1015.45 1015.41 1015.47 1015.43 1015.71 1016.09 1015.94 1016.74 1016.61 1016.91 1016.85 1017.18 1017.56 1017.75 1018.04 1018.23 1018.46 1018.71 1018.85 1018.94 1019.01 1019.05 1019.00 1019.00 1019.02 1019.02 1019.00 1018.95 1018.95 1018.88 1018.79 1018.73 1018.65 1018.59 1018.58 1018.61 1018.62 1018.59 1018.58
1015.61 1015.63 1015.97 1016.61 1016.86 1016.83 1016.30 1015.81 1015.50 1015.25 1015.48 1015.69 1015.79 1015.87 1016.05 1016.62 1016.47 1016.52 1016.66 1016.97 1016.97 1017.30 1017.61 1017.79 1018.09 1018.29 1018.48 1018.73 1018.90 1018.99 1019.09 1019.11 1019.10 1019.01 1019.01 1019.01 1018.99 1018.91 1018.87 1018.89 1018.84 1018.76 1018.66 1018.57 1018.58 1018.59 1018.61 1018.62 1018.61
1015.55 1015.74 1016.11 1016.64 1016.97 1016.49 1015.96 1015.53 1015.38 1015.67 1015.73 1015.71 1016.19 1016.45 1016.53 1016.84 1016.81 1016.62 1016.78 1016.94 1017.14 1017.55 1017.77 1017.90 1018.14 1018.31 1018.54 1018.76 1018.93 1019.00 1019.10 1019.07 1019.08 1019.09 1019.03 1018.97 1018.96 1018.88 1018.80 1018.79 1018.83 1018.81 1018.71 1018.67 1018.60 1018.52 1018.46 1018.48 1018.51
1015.61 1016.25 1017.06 1016.72 1016.78 1016.27 1015.69 1015.38 1015.41 1015.94 1015.99 1015.97 1016.18 1016.77 1017.13 1017.16 1017.18 1016.98 1017.01 1017.01 1017.29 1017.76 1017.97 1018.08 1018.26 1018.38 1018.64 1018.85 1018.98 1019.07 1019.12 1019.10 1019.04 1019.05 1019.01 1018.93 1018.86 1018.76 1018.77 1018.76 1018.75 1018.75 1018.69 1018.59 1018.51 1018.42 1018.38 1018.33 1018.31
1015.68 1016.27 1017.04 1017.00 1016.69 1016.18 1015.79 1015.44 1015.49 1015.80 1015.99 1016.17 1016.35 1016.94 1017.32 1017.37 1017.46 1017.26 1017.35 1017.37 1017.54 1017.96 1018.08 1018.18 1018.41 1018.58 1018.77 1018.97 1019.11 1019.18 1019.19 1019.16 1019.17 1019.16 1019.10 1019.05 1018.97 1018.93 1018.87 1018.82 1018.78 1018.67 1018.57 1018.45 1018.35 1018.24 1018.16 1018.07 1018.06
1016.05 1016.45 1017.04 1017.13 1016.61 1016.01 1015.66 1015.42 1015.55 1015.93 1016.25 1016.52 1016.49 1016.92 1017.48 1017.61 1017.69 1017.59 1017.75 1017.93 1017.92 1018.18 1018.49 1018.57 1018.75 1018.86 1019.03 1019.19 1019.30 1019.39 1019.38 1019.34 1019.37 1019.39 1019.34 1019.29 1019.22 1019.14 1019.02 1018.95 1018.89 1018.75 1018.53 1018.36 1018.17 1018.03 1017.91 1017.81 1017.79
1015.61 1016.46 1017.06 1016.99 1016.59 1016.03 1015.61 1015.55 1015.70 1015.99 1016.40 1016.49 1016.44 1017.14 1017.77 1017.78 1018.00 1017.94 1018.13 1018.39 1018.61 1018.78 1019.00 1019.07 1019.12 1019.27 1019.39 1019.50 1019.57 1019.62 1019.63 1019.60 1019.62 1019.69 1019.65 1019.62 1019.51 1019.44 1019.27 1019.14 1018.98 1018.79 1018.63 1018.42 1018.19 1017.98 1017.76 1017.56 1017.42
1015.66 1016.32 1017.34 1016.87 1016.57 1015.96 1015.62 1015.63 1015.77 1015.85 1016.50 1016.64 1016.52 1016.95 1017.58 1017.65 1018.16 1018.34 1018.58 1018.89 1019.19 1019.24 1019.40 1019.43 1019.53 1019.63 1019.76 1019.86 1019.91 1019.93 1019.99 1019.97 1019.91 1019.89 1019.90 1019.84 1019.64 1019.53 1019.40 1019.21 1019.00 1018.81 1018.66 1018.50 1018.32 1018.12 1017.95 1017.73 1017.45
1015.44 1016.28 1017.20 1016.89 1016.50 1015.84 1015.71 1015.75 1015.97 1016.23 1016.35 1016.77 1016.80 1017.00 1017.29 1017.68 1018.36 1018.63 1018.97 1019.33 1019.49 1019.60 1019.72 1019.79 1019.88 1020.00 1020.02 1020.09 1020.22 1020.22 1020.23 1020.22 1020.14 1020.07 1019.97 1019.80 1019.73 1019.58 1019.40 1019.39 1019.15 1018.92 1018.73 1018.57 1018.39 1018.21 1018.01 1017.83 1017.54
1015.51 1016.30 1016.54 1016.34 1016.18 1015.82 1015.66 1015.74 1016.05 1016.47 1016.66 1016.99 1017.16 1017.43 1017.66 1018.03 1018.50 1018.74 1018.96 1019.30 1019.57 1019.76 1020.01 1020.05 1020.19 1020.31 1020.33 1020.33 1020.47 1020.46 1020.37 1020.39 1020.32 1020.24 1020.08 1019.94 1019.90 1019.83 1019.63 1019.52 1019.35 1019.14 1018.93 1018.73 1018.52 1018.33 1018.09 1017.82 1017.50
1015.68 1016.10 1016.37 1016.38 1016.28 1016.17 1015.75 1015.95 1016.21 1016.42 1016.89 1016.81 1016.83 1017.29 1017.77 1018.29 1018.61 1018.80 1019.12 1019.29 1019.42 1019.73 1020.06 1020.21 1020.35 1020.52 1020.46 1020.52 1020.63 1020.68 1020.68 1020.60 1020.51 1020.44 1020.37 1020.25 1020.08 1019.93 1019.71 1019.43 1019.23 1019.11 1018.98 1018.69 1018.48 1018.22 1017.96 1017.81 1017.56
1015.90 1016.40 1016.23 1016.42 1016.47 1016.45 1015.98 1015.98 1016.30 1016.49 1016.70 1016.83 1016.76 1017.13 1017.72 1018.25 1018.58 1018.86 1019.19 1019.44 1019.57 1019.76 1020.10 1020.32 1020.47 1020.52 1020.61 1020.73 1020.77 1020.84 1020.77 1020.70 1020.65 1020.64 1020.54 1020.40 1020.18 1020.02 1019.86 1019.63 1019.48 1019.24 1019.01 1018.73 1018.46 1018.24 1017.97 1017.65 1017.39
1016.21 1016.57 1016.45 1016.57 1016.64 1016.72 1016.07 1016.22 1016.45 1016.87 1016.99 1017.08 1017.17 1017.56 1017.93 1018.43 1018.75 1019.00 1019.28 1019.59 1019.71 1019.82 1020.15 1020.35 1020.58 1020.55 1020.65 1020.70 1020.88 1020.87 1020.94 1020.85 1020.90 1020.79 1020.74 1020.57 1020.33 1020.10 1019.97 1019.79 1019.59 1019.35 1019.13 1018.77 1018.39 1018.07 1017.69 1017.37 1017.05
1016.34 1016.46 1016.69 1016.93 1016.99 1016.91 1016.37 1016.43 1016.42 1017.20 1017.36 1017.50 1017.62 1017.94 1018.29 1018.53 1018.87 1019.17 1019.45 1019.51 1019.74 1019.86 1020.14 1020.34 1020.41 1020.56 1020.61 1020.74 1020.84 1020.89 1020.91 1020.90 1020.82 1020.76 1020.73 1020.60 1020.46 1020.30 1020.09 1019.85 1019.65 1019.36 1019.18 1018.81 1018.41 1018.01 1017.63 1017.22 1016.86
1016.41 1016.81 1016.70 1017.42 1017.25 1017.14 1016.76 1016.89 1017.02 1017.37 1017.65 1017.84 1018.09 1018.35 1018.57 1018.74 1018.92 1018.99 1019.13 1019.30 1019.47 1019.73 1020.11 1020.25 1020.26 1020.58 1020.60 1020.75 1020.82 1020.92 1021.04 1021.04 1021.02 1021.00 1020.94 1020.70 1020.53 1020.32 1020.18 1019.91 1019.67 1019.46 1019.17 1018.72 1018.26 1017.79 1017.37 1017.03 1016.55
1016.78 1016.99 1017.33 1017.92 1017.41 1017.12 1016.79 1017.26 1017.32 1017.55 1017.93 1018.23 1018.44 1018.63 1018.77 1018.80 1018.80 1018.92 1019.01 1019.07 1019.26 1019.69 1019.96 1020.02 1020.11 1020.42 1020.55 1020.68 1020.84 1020.99 1021.10 1021.19 1021.20 1021.16 1021.02 1020.96 1020.78 1020.60 1020.33 1020.07 1019.78 1019.51 1019.16 1018.77 1018.31 1017.91 1017.33 1016.81 1016.44
1017.55 1017.80 1017.89 1018.15 1017.91 1017.56 1017.15 1017.42 1017.46 1017.68 1018.08 1018.41 1018.62 1018.68 1018.76 1018.75 1018.65 1018.63 1018.62 1018.77 1019.03 1019.32 1019.63 1019.88 1020.14 1020.34 1020.47 1020.69 1020.95 1021.12 1021.22 1021.33 1021.30 1021.23 1021.11 1020.97 1020.80 1020.61 1020.43 1020.17 1019.93 1019.59 1019.18 1018.78 1018.52 1018.00 1017.71 1016.98 1016.45
1018.11 1018.19 1018.37 1018.43 1018.66 1018.09 1017.88 1017.77 1017.86 1018.00 1018.32 1018.44 1018.64 1018.64 1018.81 1018.85 1018.25 1018.47 1018.51 1018.63 1018.85 1019.16 1019.43 1019.76 1020.04 1020.26 1020.49 1020.82 1021.10 1021.21 1021.22 1021.32 1021.28 1021.14 1020.99 1020.90 1020.74 1020.60 1020.43 1020.17 1019.90 1019.64 1019.25 1018.89 1018.68 1018.30 1017.73 1017.35 1016.84
1017.61 1017.89 1018.60 1019.16 1019.08 1018.85 1018.77 1018.53 1018.12 1018.25 1018.46 1018.57 1018.75 1018.87 1018.89 1018.92 1018.51 1018.52 1018.48 1018.54 1018.71 1019.05 1019.43 1019.71 1019.94 1020.22 1020.62 1020.96 1021.12 1021.21 1021.21 1021.17 1021.07 1021.00 1020.93 1020.77 1020.67 1020.51 1020.34 1020.17 1019.90 1019.59 1019.28 1019.00 1018.82 1018.42 1017.82 1017.33 1017.06
1018.19 1018.56 1019.41 1019.61 1019.43 1019.24 1019.39 1018.79 1018.37 1018.36 1018.32 1018.58 1018.88 1019.02 1019.02 1019.07 1018.74 1018.50 1018.41 1018.50 1018.78 1019.04 1019.42 1019.79 1020.00 1020.34 1020.77 1021.05 1021.20 1021.28 1021.22 1021.16 1021.17 1020.96 1020.73 1020.58 1020.48 1020.36 1020.14 1020.09 1019.93 1019.47 1019.20 1018.98 1018.91 1018.54 1018.06 1017.63 1017.39
1019.78 1019.57 1019.73 1019.85 1020.10 1020.37 1019.98 1019.35 1018.66 1018.58 1018.45 1018.68 1018.97 1019.11 1019.18 1019.22 1019.05 1018.79 1018.57 1018.62 1018.97 1019.21 1019.49 1019.85 1020.15 1020.47 1020.66 1020.90 1021.07 1021.15 1021.22 1021.16 1020.99 1020.82 1020.67 1020.47 1020.30 1020.17 1019.95 1019.92 1019.77 1019.53 1019.25 1019.01 1018.87 1018.60 1018.26 1017.91 1017.38
1020.33 1020.29 1020.12 1020.43 1020.81 1021.47 1021.41 1020.59 1019.12 1018.87 1018.66 1018.86 1019.10 1019.19 1019.32 1019.40 1019.25 1019.18 1018.98 1018.89 1019.08 1019.38 1019.75 1020.00 1020.18 1020.34 1020.55 1020.76 1020.96 1021.01 1021.03 1021.06 1020.77 1020.73 1020.49 1020.25 1020.14 1019.90 1019.69 1019.61 1019.54 1019.47 1019.25 1019.12 1018.79 1018.50 1018.35 1018.14 1017.61
1020.97 1020.75 1020.99 1021.35 1021.72 1022.31 1022.39 1021.96 1019.50 1019.26 1019.02 1019.07 1019.24 1019.41 1019.43 1019.38 1019.32 1019.24 1019.18 1019.17 1019.33 1019.54 1019.81 1020.04 1020.18 1020.28 1020.41 1020.63 1020.77 1020.75 1020.68 1020.66 1020.49 1020.39 1020.14 1019.88 1019.68 1019.59 1019.43 1019.28 1019.24 1019.15 1019.08 1018.86 1018.66 1018.41 1018.23 1018.01 1017.79
1021.21 1021.35 1021.78 1022.19 1022.72 1023.59 1023.79 1023.27 1020.37 1019.70 1019.11 1019.26 1019.40 1019.55 1019.57 1019.53 1019.45 1019.41 1019.33 1019.36 1019.48 1019.68 1019.84 1019.97 1020.07 1020.09 1020.23 1020.24 1020.28 1020.33 1020.24 1020.04 1019.97 1019.69 1019.62 1019.34 1019.24 1019.05 1018.97 1018.95 1018.82 1018.88 1018.83 1018.65 1018.42 1018.15 1018.02 1017.80 1017.61
1021.44 1021.91 1023.00 1023.78 1024.17 1024.70 1024.43 1023.83 1020.49 1019.64 1019.43 1019.51 1019.57 1019.55 1019.58 1019.55 1019.52 1019.53 1019.55 1019.53 1019.56 1019.62 1019.65 1019.70 1019.74 1019.63 1019.73 1019.77 1019.80 1019.81 1019.75 1019.63 1019.44 1019.16 1018.99 1018.85 1018.68 1018.46 1018.33 1018.45 1018.39 1018.42 1018.32 1018.39 1018.09 1017.86 1017.78 1017.66 1017.40
1022.36 1022.63 1023.49 1024.68 1025.55 1025.43 1024.81 1023.11 1020.28 1019.85 1019.68 1019.63 1019.54 1019.51 1019.54 1019.55 1019.54 1019.51 1019.51 1019.49 1019.51 1019.53 1019.50 1019.47 1019.49 1019.36 1019.36 1019.35 1019.36 1019.39 1019.36 1019.21 1018.93 1018.67 1018.51 1018.40 1018.31 1018.09 1017.89 1017.89 1017.88 1017.94 1017.87 1017.91 1017.78 1017.58 1017.47 1017.42 1017.24
1022.68 1023.18 1024.03 1025.11 1026.77 1026.00 1024.23 1022.44 1020.72 1020.05 1019.87 1019.76 1019.64 1019.55 1019.60 1019.67 1019.65 1019.65 1019.66 1019.65 1019.59 1019.52 1019.45 1019.40 1019.35 1019.33 1019.29 1019.24 1019.14 1019.04 1018.93 1018.73 1018.37 1018.11 1018.01 1017.93 1017.76 1017.57 1017.40 1017.35 1017.31 1017.33 1017.38 1017.35 1017.38 1017.27 1017.13 1017.06 1016.96
1022.92 1023.62 1024.30 1024.82 1025.80 1025.68 1024.25 1023.10 1021.17 1020.48 1020.13 1019.86 1019.76 1019.70 1019.78 1019.88 1019.95 1019.98 1019.97 1019.93 1019.85 1019.70 1019.58 1019.52 1019.51 1019.37 1019.25 1019.08 1018.92 1018.73 1018.53 1018.21 1018.01 1017.83 1017.60 1017.51 1017.36 1017.15 1016.99 1016.93 1016.93 1016.95 1016.98 1016.94 1016.98 1016.85 1016.77 1016.82 1016.66
1023.78 1024.01 1024.73 1025.16 1025.49 1025.45 1024.71 1022.64 1020.68 1020.36 1020.02 1019.90 1019.81 1019.72 1019.75 1019.83 1019.94 1019.97 1020.02 1020.04 1020.11 1019.98 1019.82 1019.68 1019.49 1019.31 1019.12 1019.04 1018.81 1018.58 1018.24 1017.92 1017.70 1017.55 1017.29 1017.06 1016.86 1016.64 1016.47 1016.38 1016.33 1016.29 1016.33 1016.29 1016.35 1016.40 1016.52 1016.57 1016.41
1024.02 1024.31 1024.67 1025.31 1025.99 1025.97 1025.26 1022.01 1020.39 1020.40 1020.29 1020.19 1020.16 1020.09 1020.06 1020.15 1020.19 1020.22 1020.10 1020.05 1019.99 1019.96 1019.77 1019.61 1019.40 1019.32 1019.23 1019.08 1018.85 1018.51 1018.14 1017.79 1017.54 1017.25 1016.95 1016.70 1016.39 1016.12 1016.06 1015.99 1015.86 1015.67 1015.59 1015.64 1015.68 1015.78 1015.92 1015.95 1015.91
Wind_Speed
2 3 2 3 2 2 3 5 1 2 2 1 1 4 4 4 2 3 2 6 11 12 11 11 10 10 9 8 7 7 6 6 6 5 4 4 3 5 4 6 7 8 5 0 2 4 4 3 1
2 3 3 3 4 3 3 2 6 4 5 6 4 3 3 3 0 6 6 6 11 12 10 10 10 9 10 8 7 6 5 4 3 3 3 3 3 3 4 5 6 7 8 2 1 1 2 2 1
4 3 3 4 3 6 4 5 3 4 8 3 4 3 3 6 1 4 2 11 11 10 9 9 9 9 8 7 6 5 3 3 2 2 3 3 4 5 4 4 4 5 6 4 3 4 3 3 3
4 2 4 3 6 4 3 2 4 10 1 2 3 7 1 2 1 1 9 12 11 9 8 9 7 8 7 6 5 4 4 5 6 5 5 7 8 7 8 7 5 4 5 6 7 7 8 7 6
3 2 3 4 5 3 3 2 8 7 4 3 1 5 3 2 1 7 10 9 11 8 7 8 9 10 9 9 8 8 7 7 8 8 9 9 9 10 9 9 9 8 7 8 9 10 10 10 9
4 3 3 5 4 3 2 3 6 3 2 5 5 6 3 0 5 7 9 9 9 10 9 9 11 12 11 10 10 10 9 9 9 10 10 11 11 10 10 9 9 10 10 9 10 11 12 12 10
6 4 5 7 5 2 3 5 5 5 4 4 8 5 0 3 4 7 10 9 9 9 8 7 8 9 11 11 11 11 11 11 11 11 11 11 11 11 11 10 10 10 10 11 11 11 11 9 10
4 5 5 2 6 5 4 3 2 2 2 2 0 5 6 4 7 9 9 9 8 7 7 7 7 7 7 6 12 12 12 11 11 11 11 10 9 9 9 8 9 9 10 10 11 10 10 11 11
3 6 4 7 7 5 4 4 2 1 6 1 1 2 2 14 10 8 6 5 5 6 5 5 6 6 5 6 7 8 9 10 10 9 10 6 5 6 6 8 9 10 10 11 11 11 12 12 9
4 4 9 5 3 4 6 3 6 3 3 0 1 2 9 12 9 9 7 6 4 4 4 4 5 5 5 4 5 5 5 4 5 5 6 5 6 6 7 7 10 10 10 10 11 11 11 8 5
2 5 6 4 2 2 6 4 2 8 2 4 6 9 13 11 8 7 5 5 4 3 3 3 4 4 4 4 3 2 2 3 3 6 6 5 4 5 4 4 4 5 7 5 7 7 5 7 6
7 3 4 3 1 3 6 5 4 1 0 5 6 13 11 13 11 8 7 6 5 4 4 3 3 3 4 2 3 3 3 3 4 5 7 5 4 5 5 4 5 5 5 6 6 4 7 8 8
5 4 5 5 6 3 5 4 4 2 3 3 10 10 10 8 6 4 3 3 4 3 4 4 3 3 3 3 2 2 3 3 4 4 5 4 4 5 5 5 5 5 5 6 6 6 7 7 8
4 6 6 7 3 4 5 3 3 1 1 6 8 8 6 7 7 3 4 5 5 4 4 4 4 3 2 3 3 2 2 3 3 3 4 5 4 4 5 5 5 5 6 6 6 6 6 6 6
5 8 5 8 5 3 2 4 2 1 2 6 6 5 5 6 5 8 5 6 6 5 5 6 4 3 3 2 1 2 3 3 4 4 5 5 5 5 6 5 5 5 6 7 6 6 5 5 5
4 5 6 4 6 2 1 4 2 3 4 5 5 4 5 6 7 6 7 6 5 6 7 5 4 5 3 2 2 1 1 2 2 3 3 5 5 5 5 5 4 5 6 6 6 6 6 5 5
7 5 5 3 4 2 3 3 1 3 3 5 5 5 5 5 6 6 8 7 7 7 6 6 5 5 3 2 1 0 1 1 1 2 3 5 5 6 5 4 4 6 5 5 6 7 5 6 6
6 8 4 5 4 4 2 2 2 2 3 6 5 5 5 6 10 5 6 6 6 6 6 5 5 5 4 1 1 0 0 1 1 2 3 5 4 6 6 4 5 6 5 6 7 9 7 7 5
7 7 7 1 3 1 3 4 7 4 4 5 6 6 7 8 5 5 6 5 5 5 6 7 7 6 2 0 0 0 0 1 1 2 4 4 4 5 5 4 5 5 4 7 8 5 8 6 8
8 9 4 1 4 2 5 7 4 2 3 2 4 5 6 6 6 6 5 3 4 3 6 6 6 4 2 1 1 0 0 1 2 3 3 2 4 4 4 5 5 7 5 6 6 7 5 5 3
5 6 4 3 2 4 3 6 2 1 0 2 4 2 2 4 6 6 5 2 1 3 5 5 4 3 3 3 1 0 1 1 2 1 3 2 4 4 4 4 5 6 5 5 4 5 6 5 3
5 3 3 5 4 2 5 4 3 2 3 3 5 5 3 4 4 4 5 4 1 2 3 3 3 3 3 3 2 3 1 2 2 3 3 5 5 4 3 4 4 5 4 6 4 5 4 5 4
4 2 4 3 5 4 8 5 6 3 2 2 3 5 4 4 4 5 5 5 3 3 3 2 2 3 3 4 5 3 4 5 5 5 8 7 5 5 4 4 4 4 3 4 7 5 5 4 4
6 4 7 4 3 4 4 3 6 3 3 2 2 4 4 4 4 4 4 4 2 2 2 3 3 4 4 5 6 7 8 8 6 6 6 6 5 4 5 5 4 4 4 5 5 5 6 5 5
4 5 4 5 5 5 2 2 9 2 1 1 3 5 4 3 3 3 4 3 2 1 1 2 3 5 4 5 6 7 9 9 9 9 6 7 6 4 5 5 5 4 4 6 6 5 5 6 5
4 3 6 5 2 4 3 6 6 2 2 4 4 4 2 3 3 4 4 3 2 2 1 2 3 4 4 4 6 6 7 6 7 8 7 6 6 7 6 6 6 7 6 6 6 5 4 6 5
1 4 4 9 1 2 2 7 6 5 5 1 2 3 4 3 3 3 3 3 3 4 4 3 3 3 3 4 4 5 5 6 7 8 7 6 7 6 8 8 7 8 7 7 7 5 6 5 5
3 5 4 3 2 3 5 5 7 2 5 4 3 3 2 3 4 3 3 3 2 2 2 3 3 3 3 4 4 5 6 5 6 6 8 7 8 8 7 8 8 8 8 8 7 6 7 7 5
3 2 5 3 3 4 2 7 7 5 6 7 5 3 1 2 3 2 3 3 3 3 4 4 5 5 5 5 6 7 7 6 6 6 7 7 7 7 7 8 9 9 10 9 8 8 8 9 8
1 2 3 5 3 2 2 10 2 5 4 5 2 3 3 2 2 1 2 3 4 4 4 4 4 4 5 6 6 7 7 6 6 7 7 6 8 6 7 8 9 10 10 9 10 10 9 10 9
Wind_Direction
229 58 56 33 108 58 196 241 285 161 224 282 352 149 164 29 124 131 66 162 146 147 156 153 143 136 125 118 112 104 93 88 85 79 73 65 38 32 10 357 2 6 7 106 66 53 34 18 88
135 118 60 84 115 154 226 235 230 189 140 127 74 69 62 88 44 115 133 163 144 146 154 153 142 142 131 127 120 110 105 98 86 82 59 27 8 1 355 353 358 2 356 214 167 99 23 350 323
117 42 114 122 133 188 203 196 207 126 144 134 109 37 87 114 98 109 129 146 140 145 151 148 148 141 133 130 120 110 84 53 54 19 360 343 329 326 322 342 350 349 350 342 271 245 241 254 260
147 64 55 136 178 236 209 146 173 146 210 83 122 107 66 356 351 38 131 136 135 142 146 140 129 112 101 95 88 74 52 32 26 14 355 347 342 334 357 356 338 316 317 312 307 281 258 253 256
64 87 112 125 191 251 241 289 160 157 134 122 174 140 89 52 14 120 130 132 133 133 131 124 105 96 88 80 70 60 52 45 36 27 17 10 7 4 1 1 2 352 328 309 297 291 287 273 253
82 103 133 165 196 238 233 186 154 129 150 145 101 121 135 36 146 117 122 112 107 108 92 90 74 76 75 71 62 50 41 41 42 35 31 26 20 11 7 9 8 1 354 343 328 305 290 287 288
118 106 154 150 186 185 206 144 173 145 146 173 140 114 135 161 129 119 110 101 94 92 91 80 74 72 71 63 59 54 50 50 48 39 33 32 33 29 27 23 13 7 5 4 5 358 354 326 292
116 93 127 194 170 196 164 105 103 153 163 137 112 167 174 167 128 101 95 94 90 86 84 81 75 72 70 63 54 55 52 48 46 41 32 25 25 19 15 8 4 360 354 352 349 347 347 350 337
146 84 155 178 153 160 162 126 44 324 116 89 78 149 46 127 122 109 105 98 96 79 72 74 75 69 66 61 47 43 41 36 30 21 18 13 7 1 355 1 358 359 356 356 353 351 353 352 341
97 111 180 171 175 162 145 131 144 156 121 80 155 57 129 134 148 143 145 142 136 130 96 85 80 72 68 65 47 40 38 32 28 16 9 7 1 359 355 356 357 357 359 354 352 347 342 340 329
122 148 172 143 194 241 129 110 134 131 198 211 204 165 155 152 157 153 158 167 160 136 119 99 88 73 71 63 52 36 27 18 18 20 13 3 359 358 359 349 354 349 359 348 340 334 329 321 315
93 76 126 107 161 179 131 121 89 43 190 288 257 155 153 161 169 174 178 178 162 157 141 122 99 95 75 66 49 33 18 16 13 14 15 11 9 8 5 359 349 345 347 338 336 329 322 315 307
94 145 71 90 104 52 108 90 144 65 341 87 119 136 152 159 170 180 178 181 178 172 165 159 153 125 103 74 58 36 16 23 15 24 20 12 6 2 352 351 343 340 338 334 329 325 323 319 314
142 103 105 62 46 37 116 102 131 29 109 109 129 139 155 168 181 174 198 206 207 199 193 181 176 157 118 69 51 30 19 25 25 11 8 8 3 0 356 345 336 334 333 326 322 321 320 316 308
156 87 75 29 350 62 284 66 96 9 133 133 144 156 171 203 198 216 216 218 206 211 206 196 180 165 113 99 57 26 26 19 10 7 5 1 2 359 351 343 335 341 335 328 325 322 315 307 310
79 53 90 349 359 345 114 227 195 9 144 167 175 187 209 226 225 229 229 230 212 205 204 186 179 168 163 104 57 52 45 18 21 9 5 1 355 352 347 345 347 341 338 340 340 331 320 313 314
13 115 96 92 36 300 59 191 166 29 181 206 217 231 243 271 264 243 238 229 223 213 196 188 182 178 165 143 94 95 29 3 28 17 12 3 357 358 346 345 346 345 341 351 350 339 330 315 324
156 112 70 117 337 22 60 216 294 335 204 232 244 257 272 269 259 267 266 247 233 207 195 183 175 174 175 127 64 126 56 5 16 20 14 2 3 359 346 335 341 341 340 350 354 344 337 317 329
119 99 106 66 350 59 23 285 264 277 253 251 252 261 270 274 297 286 271 248 220 209 188 184 175 189 157 96 321 237 325 333 325 354 353 356 353 352 353 343 332 341 333 346 345 316 342 346 345
65 104 68 70 17 99 23 283 280 269 259 232 274 283 288 301 314 315 288 221 202 187 191 184 197 165 171 170 179 185 289 273 284 293 296 294 339 338 335 341 332 338 333 343 346 330 328 334 357
34 98 140 127 82 69 329 304 353 162 318 70 23 326 358 335 340 348 352 6 162 188 182 196 189 187 195 193 164 224 240 269 295 284 298 291 311 308 317 317 317 321 330 325 324 315 336 321 318
70 329 92 95 84 164 5 262 298 359 329 62 24 32 16 4 357 2 10 14 12 224 182 186 193 211 219 194 216 228 236 270 245 275 275 296 288 287 288 296 303 314 313 315 323 311 311 312 317
143 69 79 87 87 80 356 71 263 348 158 163 25 4 354 356 7 15 27 40 62 111 162 196 237 246 235 212 228 241 255 252 270 273 284 279 278 268 271 268 283 284 294 299 300 301 302 295 295
150 80 47 53 66 41 324 105 285 195 191 144 324 338 327 340 13 19 12 37 58 135 186 215 233 252 235 227 234 239 251 264 273 275 277 283 286 283 267 259 249 266 277 291 294 293 293 285 286
72 61 15 11 12 214 329 10 242 254 229 235 293 308 315 330 36 17 19 14 12 11 306 256 242 271 264 258 257 254 257 264 267 271 273 285 285 271 265 244 245 253 253 275 281 277 280 285 285
56 115 143 186 184 266 342 241 258 229 295 259 271 260 283 5 355 354 352 349 344 340 311 273 268 290 308 302 295 290 277 268 264 264 267 268 265 270 267 251 238 248 243 253 265 268 272 283 280
194 54 153 103 69 35 263 286 301 281 263 255 46 73 34 32 33 30 5 14 4 3 358 346 346 335 330 318 305 300 291 282 280 279 269 268 269 267 263 251 246 244 242 241 251 252 256 265 275
50 137 71 4 124 283 295 274 241 281 187 181 152 110 28 353 349 355 5 11 13 38 32 35 16 352 334 329 323 319 317 314 299 293 284 277 276 268 265 260 250 251 248 244 245 249 250 254 258
24 31 48 116 82 171 313 269 207 222 195 178 185 186 241 344 338 340 2 12 1 13 21 10 10 356 344 337 327 324 317 316 307 290 284 275 274 267 261 256 251 246 244 237 237 245 255 252 255
129 148 142 118 238 60 121 273 248 234 225 175 173 287 296 328 355 8 43 31 37 27 20 11 358 346 328 319 318 316 311 314 308 300 294 288 278 277 267 263 255 250 244 240 236 240 241 243 247